Location: Augustenthal
(51.7167°N, 10.2833°E)
Time: 13:46:20
(UTC+00:00)

Cosmos 1842 - Pass Details

Date: 18 May 2021
Orbit: 521 x 535 km, 82.5° (Epoch: 19 June)

Event Time Altitude Azimuth Distance (km) Brightness Sun altitude
Exits shadow 23:47:11 43° 214° (SSW) 746 3.5 -18.2°
Maximum altitude 23:48:18 69° 281° (WNW) 568 3.3 -18.1°
Drops below altitude 10° 23:52:12 10° 6° (N) 1,785 7.2 -18.1°
Sets 23:54:23 0° 9° (N) 2,682 8.6 -18.0°
